Hourly Data Report for April 08, 2017

OTTAWA INTL A
ONTARIO

45°19'00.000" N
75°40'00.000" W
114.90 m
6106001
71628
YOW

Download Data

Hourly Data (April 2017)
Hourly Data Report for April 8, 2017
TIME
LST
Temp Definition
°C
Dew Point Definition
°C
Rel Hum Definition
%
Precip. Amount Definition
mm

Wind Dir Definition
10's deg

Wind Spd Definition
km/h
Visibility Definition
km
Stn Press Definition
kPa
Hmdx Definition


Wind Chill Definition


Weather Definition


00:00 0.1 -4.5 71   30 27 24.1 99.05     LegendNANA
01:00 -0.2 -4.5 73   30 26 24.1 99.11   -6 Mostly Cloudy
02:00 -0.4 -4.7 73   29 21 24.1 99.13   -6 LegendNANA
03:00 -0.5 -4.8 73   30 24 24.1 99.18   -6 LegendNANA
04:00 -0.4 -5.0 71   31 23 24.1 99.25   -6 Mostly Cloudy
05:00 -0.5 -5.1 71   27 24 24.1 99.31   -6 LegendNANA
06:00 -0.5 -4.9 72   29 27 24.1 99.38   -7 LegendNANA
07:00 -0.2 -4.7 72   29 23 24.1 99.48   -6 Mostly Cloudy
08:00 0.9 -4.6 67   29 26 24.1 99.52     LegendNANA
09:00 2.6 -4.4 60   29 23 24.1 99.55     LegendNANA
10:00 3.6 -4.4 56   29 25 24.1 99.59     Mainly Clear
11:00 5.4 -2.9 55   29 30 24.1 99.62     LegendNANA
12:00 6.4 -3.5 49   30 35 24.1 99.60     LegendNANA
13:00 7.4 -2.3 50   27 30 24.1 99.60     Mainly Clear
14:00 9.1 -4.1 39   28 29 24.1 99.60     LegendNANA
15:00 9.3 -5.8 34   28 34 24.1 99.63     LegendNANA
16:00 9.3 -5.8 34   29 32 24.1 99.67     Mainly Clear
17:00 9.1 -5.6 35   29 25 24.1 99.70     LegendNANA
18:00 7.8 -5.3 39   26 27 24.1 99.73     LegendNANA
19:00 4.6 -4.2 53   26 14 24.1 99.79     Clear
20:00 4.2 -4.5 53   24 11 24.1 99.86     LegendNANA
21:00 4.0 -4.5 54   21 8 24.1 99.93     LegendNANA
22:00 3.2 -4.8 56   22 10 24.1 99.96     Clear
23:00 2.7 -4.8 58   22 8 24.1 100.00     LegendNANA

Notes on Data Quality.

Legend

  • E = Estimated
  • M = Missing
  • NA = Not Available*
  • [empty] = Indicates an unobserved value
Date modified: